Regional Weather Roundup
Issued by NWS Kansas City/Pleasant Hill, MO

Home | Current Version | Previous Version | Graphics & Text | Print | Product List | Glossary Off
Versions: 1 2 3 4 5 6 7 8 9 10 11 12 13 14 15 16 17 18 19 20 21 22 23 24 25 26 27 28 29 30 31 32 33 34 35 36 37 38 39 40 41 42 43 44 45 46 47 48 49 50

000
ASUS43 KEAX 050011
RWREAX

WEATHER ROUNDUP FOR EASTERN KANSAS AND NORTHWEST MISSOURI
NATIONAL WEATHER SERVICE KANSAS CITY/PLEASANT HILL MO
600 PM CST WED MAR 04 2015

KSZ040-057-103>105-MOZ028-029-037-043-050100-
...KANSAS CITY METROPOLITAN AREA...

CITY           SKY/WX    TMP DP  RH WIND       PRES   REMARKS
K.C. INTL      CLOUDY    27   7  42 N9        30.30R WCI  18
6HR MIN TEMP:  25; 6HR MAX TEMP:  29;

K.C. DOWNTOWN  CLOUDY    29   4  34 N9        30.33R WCI  20
6HR MIN TEMP:  26; 6HR MAX TEMP:  30;

LEES SUMMIT    CLOUDY    27   4  37 N5        30.32R WCI  22
6HR MIN TEMP:  24; 6HR MAX TEMP:  27;

OLATHE - IXD   CLOUDY    26   8  46 N5        30.32R WCI  20
6HR MIN TEMP:  23; 6HR MAX TEMP:  27;

OLATHE - OJC   CLOUDY    27   4  37 N6        30.30R WCI  20
6HR MIN TEMP:  23; 6HR MAX TEMP:  27;

LAWRENCE       CLOUDY    29   5  36 N10       30.33R WCI  20

$$

MOZ001>008-011>017-020>025-030>033-038>040-044>046-053-054-050100-
...NORTHERN AND CENTRAL MISSOURI...

CITY           SKY/WX    TMP DP  RH WIND       PRES   REMARKS
ST. JOSEPH     MOCLDY    29   8  41 NW3       30.31R
6HR MIN TEMP:  25; 6HR MAX TEMP:  30;

MOSBY          CLOUDY    30   7  37 CALM      30.33R
WARRENSBURG    MOCLDY    27   5  39 N6        30.30R WCI  20
WHITEMAN AFB   MOCLDY    24   6  44 NE10      30.31R WCI  14
6HR MIN TEMP:  23; 6HR MAX TEMP:  26;

CLINTON        MOCLDY    27   9  46 NE9       30.35R WCI  17
SEDALIA        CLOUDY    25   3  38 N10       30.30R WCI  15
6HR MIN TEMP:  23; 6HR MAX TEMP:  26;

WARSAW         NOT AVBL
MARSHALL       MOCLDY    28   5  37 N16       30.30  WCI  17
CHILLICOTHE      N/A     29   7  39 NW5       30.29R WCI  24
6HR MIN TEMP:  25; 6HR MAX TEMP:  29;

MOBERLY        PTCLDY    25   1  36 NE8       30.29S WCI  16
KIRKSVILLE     NOT AVBL

$$

MOZ041-047>049-056>058-063>065-088>090-097-050100-
...EASTERN AND SOUTHERN MISSOURI...

CITY           SKY/WX    TMP DP  RH WIND       PRES   REMARKS
ST. LOUIS INTL CLOUDY    24   5  44 N12       30.29R WCI  13
6HR MIN TEMP:  23; 6HR MAX TEMP:  25; 6HR PCP: TRACE;

SPIRIT OF STL  CLOUDY    23   3  42 N10G18    30.29R WCI  12
COLUMBIA       MOCLDY    23   4  44 N13       30.28R WCI  11
JEFFERSON CITY CLOUDY    25   1  35 N12       30.32R WCI  14
MEXICO         MOCLDY    25   9  50 N10       30.29  WCI  15
ROLLA          CLOUDY    21   4  47 N15       30.22S WCI   8
OSAGE BEACH    CLOUDY    25   5  42 N6        30.28R WCI  18
SPRINGFIELD    FLURRIES  23   8  52 N10       30.27R WCI  12
BRANSON        LGT SNOW  23  19  86 N5        30.23R WCI  17
NEVADA         CLOUDY    25   7  46 N12       30.36R WCI  14
JOPLIN         CLOUDY    25   9  50 N10       30.32R WCI  15
WEST PLAINS    LGT SNOW  19  15  84 N7        30.23R FOG     WCI  10

$$

IAZ060-094-KSZ022-034>040-054-083-096-NEZ052-066-093-050100-
...KANSAS...SOUTHEAST NEBRASKA AND IOWA...

CITY           SKY/WX    TMP DP  RH WIND       PRES   REMARKS
TOPEKA         CLOUDY    30   6  36 N8        30.33R WCI  22
6HR MIN TEMP:  27; 6HR MAX TEMP:  32;

MANHATTAN      MOCLDY    30   5  34 N7        30.35R WCI  23
EMPORIA        CLOUDY    28   7  41 N7        30.31R WCI  21
CHANUTE        CLOUDY    27   9  46 N8        30.34R WCI  19
WICHITA        CLOUDY    30   6  36 NE17      30.27F WCI  18
OMAHA          PTCLDY    23  -2  33 N16       30.34R WCI  10
LINCOLN        CLEAR     26  -3  28 N15       30.34R WCI  14
FALLS CITY     PTCLDY    28   0  29 N12       30.30R WCI  18
LAMONI         CLEAR     25   5  42 NW16      30.26R WCI  12
DES MOINES     PTCLDY    22   1  40 NW18G25   30.29R WCI   7

$$



USA.gov is the U.S. government's official web portal to all federal, state and local government web resources and services.